Home > Weather > Palermo > Past weeks

Flag for Italy Weather for the Past 2 Weeks in Palermo, Italy

Now
64 °F

Passing clouds.


Feels Like: 64 °F
Forecast: 53 / 66 °F
Wind: 8 mph from West

Location: Palermo / Punta Raisi

Current Time: May 4, 2016 at 11:49:50 AM

Latest Report: May 4, 2016 at 10:50 AM


Visibility: N/A

Pressure: 29.95 "Hg

Humidity: 73%

Dew Point: 55 °F

Location of PalermoLocation

Historic Weather in Palermo — Graph

°F

Palermo Temperature Yesterday

Maximum temperature yesterday: 64 °F (at 11:50 AM)
Minimum temperature yesterday: 59 °F (at 1:50 AM)
Average temperature yesterday: 63 °F

High & Low Weather Summary for the Past Weeks

 TemperatureHumidityPressure
High75 °F (Apr 28, 5:20 PM)94% (Apr 22, 12:50 AM)30.24 "Hg (Apr 22, 12:50 AM)
Low46 °F (Apr 22, 7:20 PM)29% (Apr 19, 12:20 PM)29.74 "Hg (Apr 24, 7:50 AM)
Average62 °F72%29.96 "Hg
* Reported Apr 19 9:20 AM — May 4 9:50 AM, Palermo, Weather by CustomWeather, © 2016

Note: Actual official high and low records may vary slightly from our data, if they occured in-between our weather recording intervals... More about our weather records

Advertising

Palermo Weather History for the Previous 24 Hours

Scroll right to see more
 ConditionsComfort  
Time TempWeatherWind HumidityBarometerVisibility
9:50 AM
Wed, May 4
64 °FPassing clouds.6 mph68%29.98 "HgN/A
9:20 AM63 °FPassing clouds.7 mph73%29.98 "HgN/A
8:50 AM63 °FScattered clouds.10 mph68%29.98 "HgN/A
8:20 AM63 °FScattered clouds.12 mph73%29.98 "HgN/A
7:50 AM63 °FScattered clouds.12 mph73%29.98 "HgN/A
6:50 AM61 °FPassing clouds.10 mph77%29.98 "HgN/A
5:50 AM61 °FPassing clouds.12 mph72%29.95 "HgN/A
5:20 AM61 °FPassing clouds.14 mph72%29.98 "HgN/A
4:50 AM61 °FPassing clouds.12 mph72%29.95 "HgN/A
4:20 AM61 °FClear.15 mph72%29.95 "Hg10 mi
3:50 AM61 °FClear.16 mph72%29.95 "Hg10 mi
3:20 AM61 °FClear.17 mph72%29.95 "Hg10 mi
2:50 AM61 °FClear.15 mph72%29.95 "Hg10 mi
2:20 AM61 °FClear.20 mph72%29.98 "Hg10 mi
1:50 AM61 °FClear.17 mph72%29.98 "Hg10 mi
1:20 AM61 °FClear.15 mph72%29.98 "Hg10 mi
12:50 AM61 °FClear.14 mph68%29.98 "Hg10 mi
12:20 AM59 °FClear.10 mph77%30.01 "Hg10 mi
11:50 PM
Tue, May 3
61 °FClear.10 mph77%30.01 "Hg10 mi
10:50 PM63 °FPassing clouds.12 mph83%30.01 "HgN/A
10:20 PM63 °FPassing clouds.13 mph88%30.04 "HgN/A
9:50 PM63 °FPassing clouds.10 mph88%30.01 "HgN/A
9:20 PM63 °FPassing clouds.10 mph88%30.01 "HgN/A
8:50 PM63 °FPassing clouds.14 mph83%30.01 "HgN/A
8:20 PM63 °FPassing clouds.10 mph77%30.01 "HgN/A
7:50 PM64 °FPassing clouds.13 mph73%30.01 "HgN/A
7:20 PM64 °FPassing clouds.13 mph73%30.01 "HgN/A
6:50 PM64 °FPassing clouds.13 mph73%30.01 "HgN/A
6:20 PM64 °FPassing clouds.15 mph78%29.98 "HgN/A
5:50 PM64 °FPassing clouds.16 mph73%30.01 "HgN/A
5:20 PM64 °FScattered clouds.17 mph73%30.01 "HgN/A
4:50 PM64 °FScattered clouds.18 mph78%29.98 "HgN/A
4:20 PM64 °FScattered clouds.18 mph78%29.98 "Hg6 mi
3:50 PM64 °FPassing clouds.17 mph78%29.98 "HgN/A
3:20 PM64 °FPassing clouds.18 mph73%29.98 "HgN/A
2:50 PM64 °FScattered clouds.20 mph78%29.98 "HgN/A
2:20 PM64 °FScattered clouds.20 mph78%29.98 "HgN/A
1:20 PM63 °FPartly sunny.21 mph83%29.95 "HgN/A
12:50 PM63 °FPartly sunny.17 mph83%29.95 "HgN/A
12:20 PM64 °FScattered clouds.18 mph73%29.95 "HgN/A
11:50 AM64 °FScattered clouds.20 mph78%29.95 "HgN/A
Weather by CustomWeather, © 2016

See weather overviewHow to use our weather pages